Stations météo

Publicité
Le Touquet, France (7003): Température de l'air & dewpoint: 17.02.2017 01:00:00 - 23.02.2017 01:00:00 (CET)Le Touquet, France (7003): Température de l'air 5cm: 17.02.2017 01:00:00 - 23.02.2017 01:00:00 (CET)Le Touquet, France (7003): Vitesse du vent & gusts: 17.02.2017 01:00:00 - 23.02.2017 01:00:00 (CET)Le Touquet, France (7003): Direction du vent: 17.02.2017 01:00:00 - 23.02.2017 01:00:00 (CET)Le Touquet, France (7003): reduced air pressure: 17.02.2017 01:00:00 - 23.02.2017 01:00:00 (CET)Le Touquet, France (7003): visibility: 17.02.2017 01:00:00 - 23.02.2017 01:00:00 (CET)Le Touquet, France (7003): Ensoleillement: 17.02.2017 01:00:00 - 23.02.2017 01:00:00 (CET)Le Touquet, France (7003): Quantités de précipitations: 17.02.2017 01:00:00 - 23.02.2017 01:00:00 (CET)
Date & Time tt [°C] td [°C] tt 5cm [°C] ff [km/h] ff [knt] fx [km/h] fx [knt] dd ppp [hPa] vv [km] sd [min] rr [mm]
23.02.2017 01:00:00 9,0 7,6 8,5 22 12 45 24 WSW 1009,3 9 0 0,0
23.02.2017 00:00:00 8,9 8,1 8,6 23 13 48 26 WSW 1009,7 4,2 0 0,0
22.02.2017 23:00:00 9,0 8,2 8,7 25 14 46 25 WSW 1010,0 2,9 0 0,0
22.02.2017 22:00:00 9,0 8,4 8,7 26 14 50 27 WSW 1010,7 3,5 0 0,0
22.02.2017 21:00:00 9,1 8,3 8,8 24 13 50 27 WSW 1011,0 6 0 0,0
22.02.2017 20:00:00 9,1 8,5 8,8 22 12 55 30 WSW 1011,0 3,1 0 0,0
22.02.2017 19:00:00 9,1 8,5 8,8 21 12 46 25 WSW 1011,2 3,0 0 0,2
22.02.2017 18:00:00 9,0 8,4 8,8 22 12 48 26 WSW 1011,3 2,3 0 0,0
22.02.2017 17:00:00 9,0 8,4 8,9 23 12 58 31 WSW 1011,5 2,1 0 0,0
22.02.2017 16:00:00 9,1 8,3 9,0 28 15 52 28 WSW 1011,5 2,2 0 0,0
22.02.2017 15:00:00 9,2 9,2 9,2 27 14 48 26 WSW 1012,0 1,4 0 0,0
22.02.2017 14:00:00 9,2 - 9,1 23 12 42 23 WSW - 1,7 0 0,0
22.02.2017 13:00:00 9,2 - 9,4 23 13 46 25 W - 2,1 0 0,0
22.02.2017 12:00:00 9,3 - 9,3 27 15 45 24 WSW - 2,0 0 0,0
22.02.2017 11:00:00 9,3 - 9,3 23 12 47 26 WSW - 1,8 0 0,2
22.02.2017 10:00:00 9,3 - 9,5 24 13 48 26 WSW - 3,9 0 0,0
22.02.2017 09:00:00 9,7 - 9,3 22 12 47 26 WSW - 7 0 0,0
22.02.2017 08:00:00 9,6 - 9,2 23 13 48 26 WSW - 7 0 0,0
22.02.2017 07:00:00 9,6 - 9,3 24 13 46 25 WSW - 7 0 0,0
22.02.2017 06:00:00 9,6 - - 22 12 46 25 WSW - 7 - 0,0
22.02.2017 05:00:00 9,3 - 8,5 18 10 44 24 WSW - 7 0 0,0
22.02.2017 04:00:00 8,9 - 8,5 20 11 49 26 WSW - 6 0 0,0
22.02.2017 03:00:00 8,9 - 8,6 29 16 52 28 WSW - 6 0 0,0
22.02.2017 02:00:00 8,9 - 8,4 28 15 48 26 SW - 6 0 0,0
22.02.2017 01:00:00 8,8 - 8,6 24 13 43 23 WSW - 3,8 0 0,0
22.02.2017 00:00:00 8,9 - 8,7 20 11 41 22 WSW - 6 0 0,0
21.02.2017 23:00:00 8,8 - 8,7 17 9 37 20 WSW - 1,8 0 0,0
21.02.2017 22:00:00 9,0 - 8,7 23 13 46 25 WSW - 1,9 0 0,0
21.02.2017 21:00:00 9,0 - 8,7 18 10 38 20 WSW - 1,7 0 0,2
21.02.2017 20:00:00 9,1 - 8,8 20 11 42 23 WSW - 6 0 0,0
21.02.2017 19:00:00 9,1 - 8,9 19 10 36 19 WSW - 7 0 0,0
21.02.2017 18:00:00 9,0 - 8,9 18 10 36 19 WSW - 1,9 0 0,0
21.02.2017 17:00:00 9,2 - 9,3 16 9 33 18 WSW - 6 0 0,0
21.02.2017 16:00:00 9,3 - 9,3 16 8 33 18 WSW - 4,3 0 0,0
21.02.2017 15:00:00 9,2 - 9,4 14 8 28 15 WSW - 0,9 0 0,0
21.02.2017 14:00:00 9,4 - 9,6 11 6 24 13 WSW - 4,0 0 0,2
21.02.2017 13:00:00 9,6 - 9,9 13 7 27 15 W - 5 0 0,0
21.02.2017 12:00:00 9,5 - 9,5 15 8 28 15 W - 4,2 0 0,0
21.02.2017 11:00:00 9,3 - 9,3 16 9 29 16 W - 3,0 0 0,0
21.02.2017 10:00:00 9,2 - 9,0 13 7 26 14 W - 7 0 0,0
21.02.2017 09:00:00 9,0 - 8,6 14 8 29 16 W - 9 0 0,0
21.02.2017 08:00:00 8,7 - 8,6 13 7 29 16 W - 7 0 0,0
21.02.2017 07:00:00 8,8 - 8,5 16 9 27 15 W - 1,6 0 0,0
21.02.2017 06:00:00 8,9 - 8,7 14 8 34 18 W - 1,4 0 0,0
21.02.2017 05:00:00 9,3 - 8,8 20 11 41 22 W - 7 0 0,0
21.02.2017 04:00:00 9,2 - 8,7 17 9 29 16 W - 8 0 0,0
21.02.2017 03:00:00 9,2 - 8,8 17 9 38 21 W - 8 0 0,0
21.02.2017 02:00:00 8,9 - 8,8 14 8 31 17 W - 6 0 0,0
21.02.2017 01:00:00 9,0 - 8,6 14 8 29 15 WSW - 6 0 0,0
21.02.2017 00:00:00 8,7 - 8,6 17 9 28 15 SW - 0,9 0 0,0
20.02.2017 23:00:00 8,9 - 8,6 18 10 34 19 WSW - 0,4 0 0,0
20.02.2017 22:00:00 8,8 - 8,5 19 10 33 18 WSW - 0,3 0 0,0
20.02.2017 21:00:00 8,6 - 8,5 18 10 38 20 WSW - 0,3 0 0,0
20.02.2017 20:00:00 8,7 - 8,7 19 10 37 20 WSW - 0,3 0 0,0
20.02.2017 19:00:00 8,9 - 8,8 19 11 34 18 WSW - 0,3 0 0,0
20.02.2017 18:00:00 8,9 - 8,9 15 8 34 18 WSW - 0,4 0 0,0
20.02.2017 17:00:00 9,2 - 9,4 11 6 24 13 W - 0,3 0 0,0
20.02.2017 16:00:00 9,3 - 9,1 11 6 27 15 W - 0,4 0 0,0
20.02.2017 15:00:00 8,9 - 9,2 16 8 30 16 WSW - 0,3 0 0,0
20.02.2017 14:00:00 9,5 - 9,7 16 9 30 16 WSW - 0,6 0 0,0
20.02.2017 13:00:00 9,2 - 9,0 13 7 25 14 WSW - 0,5 0 0,0
20.02.2017 12:00:00 8,7 - 8,7 10 6 21 11 SW - 0,5 0 0,0
20.02.2017 11:00:00 8,6 - 8,4 12 7 22 12 SW - 0,3 0 0,0
20.02.2017 10:00:00 8,4 - 8,3 13 7 26 14 SW - 0,3 0 0,0
20.02.2017 09:00:00 8,3 - 8,1 14 8 24 13 SW - 0,6 0 0,2
20.02.2017 08:00:00 8,2 - 7,9 13 7 23 13 WSW - 0,6 0 0,0
20.02.2017 07:00:00 8,0 - 7,8 13 7 29 16 SW - 0,6 0 0,0
20.02.2017 06:00:00 8,0 - 7,9 11 6 27 15 SW - 0,8 0 0,0
20.02.2017 05:00:00 8,0 - 7,9 13 7 28 15 WSW - 0,7 0 0,0
20.02.2017 04:00:00 8,4 - 8,0 16 8 29 16 WSW - 1,3 0 0,2
20.02.2017 03:00:00 8,2 - 8,1 14 8 25 14 WSW - 1,1 0 0,0
20.02.2017 02:00:00 8,4 - 8,2 11 6 22 12 WSW - 0,9 0 0,0
20.02.2017 01:00:00 8,6 - 8,4 10 6 24 13 WSW - 6 0 0,0
20.02.2017 00:00:00 8,5 - 8,2 10 5 21 11 WSW - 10 0 0,0
19.02.2017 23:00:00 8,4 - 8,2 10 6 21 11 WSW - 11 0 0,0
19.02.2017 22:00:00 8,4 - 8,0 8 5 17 9 SW - 6 0 0,0
19.02.2017 21:00:00 8,2 - 7,8 9 5 17 9 SW - 13 0 0,0
19.02.2017 20:00:00 8,0 - 7,7 5 3 17 9 SW - 12 0 0,0
19.02.2017 19:00:00 8,5 - 7,7 9 5 19 10 WSW - 19 0 0,0
19.02.2017 18:00:00 8,4 - 8,1 10 5 19 10 WSW - 14 9 0,0
19.02.2017 17:00:00 9,2 - 9,8 11 6 22 12 WSW - 9 10 0,0
19.02.2017 16:00:00 9,8 - 10,8 14 8 28 15 W - 7 29 0,0
19.02.2017 15:00:00 10,1 - 10,9 17 9 31 17 W - 4,0 17 0,0
19.02.2017 14:00:00 9,2 - 10,2 13 7 28 15 W - 6 1 0,0
19.02.2017 13:00:00 8,9 - 9,7 15 8 26 14 W - 7 0 0,0
19.02.2017 12:00:00 8,8 - 8,8 12 7 27 14 W - 4,1 0 0,0
19.02.2017 11:00:00 8,8 - 8,9 13 7 23 13 WSW - 6 23 0,0
19.02.2017 10:00:00 7,8 - 5,6 10 6 21 12 WSW - 5 36 0,0
19.02.2017 09:00:00 5,6 - -0,5 8 4 14 7 SW - 3,1 3 0,0
19.02.2017 08:00:00 1,5 - -1,3 5 3 9 5 SE - 1,4 0 0,0
19.02.2017 07:00:00 1,0 - -1,1 4 2 10 5 SE - 1,6 0 0,0
19.02.2017 06:00:00 1,4 - 0,3 7 4 9 5 SE - 0,6 0 0,0
19.02.2017 05:00:00 2,4 - 1,5 5 3 11 6 SE - 0,2 0 0,0
19.02.2017 04:00:00 3,5 - 3,2 6 4 15 8 SE - 0,2 0 0,0
19.02.2017 03:00:00 4,1 - 4,0 9 5 14 8 SE - 0,2 0 0,0
19.02.2017 02:00:00 4,4 - 4,3 9 5 16 9 SE - 0,2 0 0,0
19.02.2017 01:00:00 4,5 - 4,4 11 6 16 9 SSE - 0,2 0 0,0
19.02.2017 00:00:00 4,6 - 4,3 10 5 19 10 SSE - 0,2 0 0,0
18.02.2017 23:00:00 4,5 - 2,7 9 5 16 9 SSE - 0,2 0 0,0
18.02.2017 22:00:00 3,8 - 0,2 11 6 15 8 SE - 1,4 0 0,0
18.02.2017 21:00:00 4,1 - - 4 2 8 4 SSE - 0,8 - 0,0
18.02.2017 20:00:00 4,2 - 0,6 4 2 7 4 SSE - 0,9 0 0,0
18.02.2017 19:00:00 5,8 - 2,5 2 1 6 3 SE - 1,9 0 0,0
18.02.2017 18:00:00 9,2 - 6,2 0 0 6 3 N - 11 46 0,0
18.02.2017 17:00:00 10,4 - 10,3 3 2 10 6 SE - 5 43 0,0
18.02.2017 16:00:00 9,6 - 10,7 7 4 14 7 ESE - 4,8 60 0,0
18.02.2017 15:00:00 7,5 - 10,7 8 4 13 7 ESE - 4,5 50 0,0
18.02.2017 14:00:00 6,7 - 9,2 9 5 15 8 ESE - 3,9 23 0,0
18.02.2017 13:00:00 6,0 - 6,3 9 5 13 7 SE - 2,4 11 0,0
18.02.2017 12:00:00 4,7 - 4,9 9 5 13 7 SSE - 1,2 0 0,0
18.02.2017 11:00:00 3,5 - 3,2 9 5 14 8 SE - 0,3 0 0,0
18.02.2017 10:00:00 2,1 - 1,8 11 6 14 8 SE - 0,2 0 0,0
18.02.2017 09:00:00 1,3 -49,6 0,9 9 5 14 7 ESE 1027,3 0,2 0 0,0
18.02.2017 08:00:00 1,0 -49,7 1,0 10 6 13 7 ESE 1027,2 0,2 0 0,0
18.02.2017 07:00:00 1,1 1,1 1,0 8 4 13 7 ESE 1027,0 0,2 0 0,0
18.02.2017 06:00:00 1,7 1,7 1,6 9 5 15 8 ESE 1027,4 0,1 0 0,0
18.02.2017 05:00:00 1,7 1,7 1,7 10 6 15 8 ESE 1027,4 0,1 0 0,0
18.02.2017 04:00:00 1,7 1,7 1,7 10 5 13 7 SE 1027,4 0,2 0 0,0
18.02.2017 03:00:00 2,0 2,0 2,0 9 5 14 7 ESE 1027,9 0,1 0 0,0
18.02.2017 02:00:00 2,4 2,4 2,4 8 4 13 7 ESE 1028,2 0,1 0 0,0
18.02.2017 01:00:00 2,5 2,5 2,4 9 5 13 7 SE 1028,6 0,2 0 0,0
18.02.2017 00:00:00 3,0 3,0 3,0 6 4 11 6 ESE 1028,7 0,1 0 0,0
17.02.2017 23:00:00 3,4 3,3 1,2 5 3 7 4 SSE 1029,0 0,1 0 0,0
17.02.2017 22:00:00 2,7 2,6 -0,6 3 2 5 3 SSE 1029,0 0,1 0 0,0
17.02.2017 21:00:00 3,4 3,1 -0,3 0 0 2 1 N 1028,9 0,1 0 0,0
17.02.2017 20:00:00 5,8 5,5 1,8 0 0 7 4 N 1028,8 0,4 0 0,0
17.02.2017 19:00:00 6,4 6,0 5,1 5 3 15 8 SW 1028,8 12 0 0,0
17.02.2017 18:00:00 7,4 6,7 7,3 10 5 19 11 SW 1028,7 19 0 0,0
17.02.2017 17:00:00 7,9 7,1 8,3 9 5 18 10 SW 1028,8 20 0 0,0
17.02.2017 16:00:00 8,5 7,7 9,5 10 6 17 9 SW 1028,9 18 0 0,0
17.02.2017 15:00:00 8,7 7,3 10,0 8 4 18 10 SW 1029,0 42 0 0,0
17.02.2017 14:00:00 9,1 7,7 10,8 11 6 20 11 W 1029,3 20 17 0,0
17.02.2017 13:00:00 9,2 8,0 11,3 10 5 19 10 W 1029,4 17 11 0,0
17.02.2017 12:00:00 9,0 8,1 10,7 10 5 19 10 W 1029,5 17 1 0,0
17.02.2017 11:00:00 8,6 7,8 8,9 7 4 22 12 W 1029,4 12 0 0,0
17.02.2017 10:00:00 8,3 7,7 7,8 7 4 25 14 W 1029,1 11 0 0,0
17.02.2017 09:00:00 7,9 7,5 7,2 12 7 24 13 W 1028,9 9 0 0,0
17.02.2017 08:00:00 8,0 7,7 7,5 9 5 18 10 W 1028,5 6 0 0,0
17.02.2017 07:00:00 8,0 7,9 7,6 10 6 20 11 W 1028,3 6 0 0,0
17.02.2017 06:00:00 8,0 7,9 7,6 10 6 21 11 W 1028,5 6 0 0,0
17.02.2017 05:00:00 8,0 7,9 7,7 10 6 21 11 W 1028,7 7 0 0,0
17.02.2017 04:00:00 8,1 8,1 7,5 11 6 23 13 W 1028,9 13 0 0,0
17.02.2017 03:00:00 7,9 7,9 7,3 11 6 20 11 W 1028,9 10 0 0,2
17.02.2017 02:00:00 7,4 7,4 6,6 6 4 16 9 WSW 1029,1 5 0 0,0
17.02.2017 01:00:00 6,7 6,7 6,4 9 5 17 9 SW 1029,6 1,0 0 0,0

tt = Température de l'air
td = dewpoint
tt 5cm = Température de l'air 5cm
ff = Vitesse du vent
fx = gusts
dd = Direction du vent
ppp = reduced air pressure
vv = visibility
sd = Ensoleillement
rr = Quantités de précipitations

stations d'obs. à proximité